Погода в Чилакапе

Индонезия     7°29′44″S   109°00′16″E
темп.,
°C
ветер,
м/с
пор.,
м/с
влажн.,
%
обл.,
%
осадки,
мм/ч
давл.,
гПа
погр.,
м
2 марта, вт
вт201:00+24сз129299 7.9 101127
04:00+24ссз129385 0.3 100936
07:00+25ссз128974 0.8 1011107
10:00+31зсз236473 0.0 1011932
13:00+30зюз137173 2.1 1009878
16:00+27юз2387100 7.9 1008249
19:00+25сз1291100 10.0 101033
22:00+25сз1189100 0.3 101124
3 марта, ср
ср301:00+24с119088 0.4 101024
04:00+24ссз119077 0.0 100924
07:00+25с118767 0.0 101065
10:00+31сз236254 0.0 1011962
13:00+32сз236157 1.5 10091304
16:00+30сз037161 1.9 1007410
19:00+25юз119181 4.8 101031
22:00+25ссз1291100 3.4 101227
4 марта, чт
чт401:00+24с1291100 4.3 101134
04:00+24ссз129096 2.6 101028
07:00+24с128997 3.3 101235
10:00+30з1167100 0.1 1012645
13:00+33зюз1254100 0.3 10101391
16:00+27ю3581100 2.5 1008386
19:00+25в0189100 4.4 101124
22:00+24св1188100 0.1 101224
5 марта, пт
пт501:00+24ссв019199 0.1 101124
04:00+24сз119277 0.1 101025
07:00+25всв019178 0.1 101164
10:00+30ююз236224 0.0 10121159
13:00+32ююз445420 0.0 10091399
16:00+29ю336316 0.0 1007908
19:00+26юв117930 0.1 101024
22:00+24ссз22855 0.0 101139
6 марта, сб
сб601:00+24сз128320 0.0 101055
04:00+23ссз128522 0.0 100928
07:00+25с117858 0.0 101160
10:00+32сз115578 0.0 1011981
13:00+33юз125257 0.9 10081485
16:00+28юз1281100 9.1 1008248
19:00+25сз1390100 15.9 1010104
22:00+24ссз2493100 2.8 1012139